owner,sensor,date,latitude,longitude,vertical_datum,sea_water_practical_salinity,qcFlag 
TABS,ioos:station:wmo:42050:1,2012-06-01T00:00:00Z,28.8425,-94.2433,2.0,31.4975,11111222 
TABS,ioos:station:wmo:42050:1,2012-06-01T00:30:00Z,28.8425,-94.2433,2.0,31.4893,11111222 
TABS,ioos:station:wmo:42050:1,2012-06-01T01:00:00Z,28.8425,-94.2433,2.0,31.4796,11111222 
TABS,ioos:station:wmo:42050:1,2012-06-01T01:30:00Z,28.8425,-94.2433,2.0,31.4655,11111222 
TABS,ioos:station:wmo:42050:1,2012-06-01T02:00:00Z,28.8425,-94.2433,2.0,31.4611,11111222 
TABS,ioos:station:wmo:42050:1,2012-06-01T02:30:00Z,28.8425,-94.2433,2.0,31.4595,11111222 
TABS,ioos:station:wmo:42050:1,2012-06-01T03:00:00Z,28.8425,-94.2433,2.0,31.465,11111222 
TABS,ioos:station:wmo:42050:1,2012-06-01T03:30:00Z,28.8425,-94.2433,2.0,31.4636,11111222 
TABS,ioos:station:wmo:42050:1,2012-06-01T04:00:00Z,28.8425,-94.2433,2.0,31.4732,11111222 
TABS,ioos:station:wmo:42050:1,2012-06-01T04:30:00Z,28.8425,-94.2433,2.0,31.4965,11111222 
TABS,ioos:station:wmo:42050:1,2012-06-01T05:00:00Z,28.8425,-94.2433,2.0,31.5418,11111222 
TABS,ioos:station:wmo:42050:1,2012-06-01T05:30:00Z,28.8425,-94.2433,2.0,31.6079,11111222 
TABS,ioos:station:wmo:42050:1,2012-06-01T06:00:00Z,28.8425,-94.2433,2.0,31.6242,11111222 
TABS,ioos:station:wmo:42050:1,2012-06-01T06:30:00Z,28.8425,-94.2433,2.0,31.6609,11111222 
TABS,ioos:station:wmo:42050:1,2012-06-01T07:00:00Z,28.8425,-94.2433,2.0,31.5526,11111222 
TABS,ioos:station:wmo:42050:1,2012-06-01T07:30:00Z,28.8425,-94.2433,2.0,31.5528,11111222 
TABS,ioos:station:wmo:42050:1,2012-06-01T08:00:00Z,28.8425,-94.2433,2.0,31.5618,11111222 
TABS,ioos:station:wmo:42050:1,2012-06-01T08:30:00Z,28.8425,-94.2433,2.0,31.5758,11111222 
TABS,ioos:station:wmo:42050:1,2012-06-01T09:00:00Z,28.8425,-94.2433,2.0,31.6028,11111222 
TABS,ioos:station:wmo:42050:1,2012-06-01T09:30:00Z,28.8425,-94.2433,2.0,31.5992,11111222 
TABS,ioos:station:wmo:42050:1,2012-06-01T10:00:00Z,28.8425,-94.2433,2.0,31.5966,11111222 
TABS,ioos:station:wmo:42050:1,2012-06-01T10:30:00Z,28.8425,-94.2433,2.0,31.6988,11111222 
TABS,ioos:station:wmo:42050:1,2012-06-01T11:00:00Z,28.8425,-94.2433,2.0,31.7498,11111222 
TABS,ioos:station:wmo:42050:1,2012-06-01T11:30:00Z,28.8425,-94.2433,2.0,31.8755,11111222 
TABS,ioos:station:wmo:42050:1,2012-06-01T12:00:00Z,28.8425,-94.2433,2.0,31.9132,11111222 
TABS,ioos:station:wmo:42050:1,2012-06-01T12:30:00Z,28.8425,-94.2433,2.0,31.9422,11111222 
TABS,ioos:station:wmo:42050:1,2012-06-01T13:00:00Z,28.8425,-94.2433,2.0,31.9394,11111222 
TABS,ioos:station:wmo:42050:1,2012-06-01T13:30:00Z,28.8425,-94.2433,2.0,31.935,11111222 
TABS,ioos:station:wmo:42050:1,2012-06-01T14:00:00Z,28.8425,-94.2433,2.0,31.6768,11111222 
TABS,ioos:station:wmo:42050:1,2012-06-01T14:30:00Z,28.8425,-94.2433,2.0,31.4973,11111222 
TABS,ioos:station:wmo:42050:1,2012-06-01T15:00:00Z,28.8425,-94.2433,2.0,31.4463,11111222 
TABS,ioos:station:wmo:42050:1,2012-06-01T15:30:00Z,28.8425,-94.2433,2.0,31.4813,11111222 
TABS,ioos:station:wmo:42050:1,2012-06-01T16:00:00Z,28.8425,-94.2433,2.0,31.5381,11111222 
TABS,ioos:station:wmo:42050:1,2012-06-01T16:30:00Z,28.8425,-94.2433,2.0,31.5325,11111222 
TABS,ioos:station:wmo:42050:1,2012-06-01T17:00:00Z,28.8425,-94.2433,2.0,31.5151,11111222 
TABS,ioos:station:wmo:42050:1,2012-06-01T17:30:00Z,28.8425,-94.2433,2.0,31.5034,11111222 
TABS,ioos:station:wmo:42050:1,2012-06-01T18:00:00Z,28.8425,-94.2433,2.0,31.4803,11111222 
TABS,ioos:station:wmo:42050:1,2012-06-01T18:30:00Z,28.8425,-94.2433,2.0,31.4663,11111222 
TABS,ioos:station:wmo:42050:1,2012-06-01T19:00:00Z,28.8425,-94.2433,2.0,31.4541,11111222 
TABS,ioos:station:wmo:42050:1,2012-06-01T19:30:00Z,28.8425,-94.2433,2.0,31.4396,11111222 
TABS,ioos:station:wmo:42050:1,2012-06-01T20:00:00Z,28.8425,-94.2433,2.0,31.4381,11111222 
TABS,ioos:station:wmo:42050:1,2012-06-01T20:30:00Z,28.8425,-94.2433,2.0,31.4342,11111222 
TABS,ioos:station:wmo:42050:1,2012-06-01T21:00:00Z,28.8425,-94.2433,2.0,31.449,11111222 
TABS,ioos:station:wmo:42050:1,2012-06-01T21:30:00Z,28.8425,-94.2433,2.0,31.4443,11111222 
TABS,ioos:station:wmo:42050:1,2012-06-01T22:00:00Z,28.8425,-94.2433,2.0,31.4545,11111222 
TABS,ioos:station:wmo:42050:1,2012-06-01T22:30:00Z,28.8425,-94.2433,2.0,31.4516,11111222 
TABS,ioos:station:wmo:42050:1,2012-06-01T23:00:00Z,28.8425,-94.2433,2.0,31.4511,11111222 
TABS,ioos:station:wmo:42050:1,2012-06-01T23:30:00Z,28.8425,-94.2433,2.0,31.4649,11111222 
TABS,ioos:station:wmo:42050:1,2012-06-02T00:00:00Z,28.8425,-94.2433,2.0,31.4532,11111222 
TABS,ioos:station:wmo:42050:1,2012-06-02T00:30:00Z,28.8425,-94.2433,2.0,31.4389,11111222 
TABS,ioos:station:wmo:42050:1,2012-06-02T01:00:00Z,28.8425,-94.2433,2.0,31.454,11111222 
TABS,ioos:station:wmo:42050:1,2012-06-02T01:30:00Z,28.8425,-94.2433,2.0,31.4638,11111222 
TABS,ioos:station:wmo:42050:1,2012-06-02T02:00:00Z,28.8425,-94.2433,2.0,31.4909,11111222 
TABS,ioos:station:wmo:42050:1,2012-06-02T02:30:00Z,28.8425,-94.2433,2.0,31.5349,11111222 
TABS,ioos:station:wmo:42050:1,2012-06-02T03:00:00Z,28.8425,-94.2433,2.0,31.5696,11111222 
TABS,ioos:station:wmo:42050:1,2012-06-02T03:30:00Z,28.8425,-94.2433,2.0,31.6119,11111222 
TABS,ioos:station:wmo:42050:1,2012-06-02T04:00:00Z,28.8425,-94.2433,2.0,31.6547,11111222 
TABS,ioos:station:wmo:42050:1,2012-06-02T04:30:00Z,28.8425,-94.2433,2.0,31.6849,11111222 
TABS,ioos:station:wmo:42050:1,2012-06-02T05:00:00Z,28.8425,-94.2433,2.0,31.7111,11111222 
TABS,ioos:station:wmo:42050:1,2012-06-02T05:30:00Z,28.8425,-94.2433,2.0,31.7541,11111222 
TABS,ioos:station:wmo:42050:1,2012-06-02T06:00:00Z,28.8425,-94.2433,2.0,31.7862,11111222 
TABS,ioos:station:wmo:42050:1,2012-06-02T06:30:00Z,28.8425,-94.2433,2.0,31.8304,11111222 
TABS,ioos:station:wmo:42050:1,2012-06-02T07:00:00Z,28.8425,-94.2433,2.0,31.866,11111222 
TABS,ioos:station:wmo:42050:1,2012-06-02T07:30:00Z,28.8425,-94.2433,2.0,31.8849,11111222 
TABS,ioos:station:wmo:42050:1,2012-06-02T08:00:00Z,28.8425,-94.2433,2.0,31.9074,11111222 
TABS,ioos:station:wmo:42050:1,2012-06-02T08:30:00Z,28.8425,-94.2433,2.0,31.9325,11111222 
TABS,ioos:station:wmo:42050:1,2012-06-02T09:00:00Z,28.8425,-94.2433,2.0,31.9305,11111222 
TABS,ioos:station:wmo:42050:1,2012-06-02T09:30:00Z,28.8425,-94.2433,2.0,31.9418,11111222 
TABS,ioos:station:wmo:42050:1,2012-06-02T10:00:00Z,28.8425,-94.2433,2.0,31.9473,11111222 
TABS,ioos:station:wmo:42050:1,2012-06-02T10:30:00Z,28.8425,-94.2433,2.0,31.9519,11111222 
TABS,ioos:station:wmo:42050:1,2012-06-02T11:00:00Z,28.8425,-94.2433,2.0,31.9523,11111222 
TABS,ioos:station:wmo:42050:1,2012-06-02T11:30:00Z,28.8425,-94.2433,2.0,31.9367,11111222 
TABS,ioos:station:wmo:42050:1,2012-06-02T12:00:00Z,28.8425,-94.2433,2.0,31.9359,11111222 
TABS,ioos:station:wmo:42050:1,2012-06-02T12:30:00Z,28.8425,-94.2433,2.0,31.9353,11111222 
TABS,ioos:station:wmo:42050:1,2012-06-02T13:00:00Z,28.8425,-94.2433,2.0,31.9375,11111222 
TABS,ioos:station:wmo:42050:1,2012-06-02T13:30:00Z,28.8425,-94.2433,2.0,31.9549,11111222 
TABS,ioos:station:wmo:42050:1,2012-06-02T14:00:00Z,28.8425,-94.2433,2.0,31.9662,11111222 
TABS,ioos:station:wmo:42050:1,2012-06-02T14:30:00Z,28.8425,-94.2433,2.0,31.9533,11111222 
TABS,ioos:station:wmo:42050:1,2012-06-02T15:00:00Z,28.8425,-94.2433,2.0,31.942,11111222 
TABS,ioos:station:wmo:42050:1,2012-06-02T15:30:00Z,28.8425,-94.2433,2.0,31.9298,11111222 
TABS,ioos:station:wmo:42050:1,2012-06-02T16:00:00Z,28.8425,-94.2433,2.0,31.9294,11111222 
TABS,ioos:station:wmo:42050:1,2012-06-02T16:30:00Z,28.8425,-94.2433,2.0,31.9353,11111222 
TABS,ioos:station:wmo:42050:1,2012-06-02T17:00:00Z,28.8425,-94.2433,2.0,31.9244,11111222 
TABS,ioos:station:wmo:42050:1,2012-06-02T17:30:00Z,28.8425,-94.2433,2.0,31.9407,11111222 
TABS,ioos:station:wmo:42050:1,2012-06-02T18:00:00Z,28.8425,-94.2433,2.0,31.9445,11111222 
TABS,ioos:station:wmo:42050:1,2012-06-02T18:30:00Z,28.8425,-94.2433,2.0,31.8882,11111222 
TABS,ioos:station:wmo:42050:1,2012-06-02T19:00:00Z,28.8425,-94.2433,2.0,31.9424,11111222 
TABS,ioos:station:wmo:42050:1,2012-06-02T19:30:00Z,28.8425,-94.2433,2.0,31.9315,11111222 
TABS,ioos:station:wmo:42050:1,2012-06-02T20:00:00Z,28.8425,-94.2433,2.0,31.8975,11111222 
TABS,ioos:station:wmo:42050:1,2012-06-02T20:30:00Z,28.8425,-94.2433,2.0,31.9231,11111222 
TABS,ioos:station:wmo:42050:1,2012-06-02T21:00:00Z,28.8425,-94.2433,2.0,31.9224,11111222 
TABS,ioos:station:wmo:42050:1,2012-06-02T21:30:00Z,28.8425,-94.2433,2.0,31.9486,11111222 
TABS,ioos:station:wmo:42050:1,2012-06-02T22:00:00Z,28.8425,-94.2433,2.0,31.9708,11111222 
TABS,ioos:station:wmo:42050:1,2012-06-02T22:30:00Z,28.8425,-94.2433,2.0,31.9775,11111222 
TABS,ioos:station:wmo:42050:1,2012-06-02T23:00:00Z,28.8425,-94.2433,2.0,31.9803,11111222 
TABS,ioos:station:wmo:42050:1,2012-06-02T23:30:00Z,28.8425,-94.2433,2.0,31.9871,11111222 
TABS,ioos:station:wmo:42050:1,2012-06-03T00:00:00Z,28.8425,-94.2433,2.0,31.9851,11111222 
TABS,ioos:station:wmo:42050:1,2012-06-03T00:30:00Z,28.8425,-94.2433,2.0,31.9864,11111222 
TABS,ioos:station:wmo:42050:1,2012-06-03T01:00:00Z,28.8425,-94.2433,2.0,31.9882,11111222 
TABS,ioos:station:wmo:42050:1,2012-06-03T01:30:00Z,28.8425,-94.2433,2.0,31.9867,11111222 
TABS,ioos:station:wmo:42050:1,2012-06-03T02:00:00Z,28.8425,-94.2433,2.0,31.9854,11111222 
TABS,ioos:station:wmo:42050:1,2012-06-03T02:30:00Z,28.8425,-94.2433,2.0,32.0009,11111222 
TABS,ioos:station:wmo:42050:1,2012-06-03T03:00:00Z,28.8425,-94.2433,2.0,31.9809,11111222 
TABS,ioos:station:wmo:42050:1,2012-06-03T03:30:00Z,28.8425,-94.2433,2.0,31.9303,11111222 
TABS,ioos:station:wmo:42050:1,2012-06-03T04:00:00Z,28.8425,-94.2433,2.0,31.9191,11111222 
TABS,ioos:station:wmo:42050:1,2012-06-03T04:30:00Z,28.8425,-94.2433,2.0,31.9167,11111222 
TABS,ioos:station:wmo:42050:1,2012-06-03T05:00:00Z,28.8425,-94.2433,2.0,31.9205,11111222 
TABS,ioos:station:wmo:42050:1,2012-06-03T05:30:00Z,28.8425,-94.2433,2.0,31.9208,11111222 
TABS,ioos:station:wmo:42050:1,2012-06-03T06:00:00Z,28.8425,-94.2433,2.0,31.9164,11111222 
TABS,ioos:station:wmo:42050:1,2012-06-03T06:30:00Z,28.8425,-94.2433,2.0,31.928,11111222 
TABS,ioos:station:wmo:42050:1,2012-06-03T07:00:00Z,28.8425,-94.2433,2.0,31.935,11111222 
TABS,ioos:station:wmo:42050:1,2012-06-03T07:30:00Z,28.8425,-94.2433,2.0,31.9483,11111222 
TABS,ioos:station:wmo:42050:1,2012-06-03T08:00:00Z,28.8425,-94.2433,2.0,31.9806,11111222 
TABS,ioos:station:wmo:42050:1,2012-06-03T08:30:00Z,28.8425,-94.2433,2.0,32.0106,11111222 
TABS,ioos:station:wmo:42050:1,2012-06-03T09:00:00Z,28.8425,-94.2433,2.0,32.0653,11111222 
TABS,ioos:station:wmo:42050:1,2012-06-03T09:30:00Z,28.8425,-94.2433,2.0,32.1058,11111222 
TABS,ioos:station:wmo:42050:1,2012-06-03T10:00:00Z,28.8425,-94.2433,2.0,32.1583,11111222 
TABS,ioos:station:wmo:42050:1,2012-06-03T10:30:00Z,28.8425,-94.2433,2.0,32.1763,11111222 
TABS,ioos:station:wmo:42050:1,2012-06-03T11:00:00Z,28.8425,-94.2433,2.0,32.2033,11111222 
TABS,ioos:station:wmo:42050:1,2012-06-03T11:30:00Z,28.8425,-94.2433,2.0,32.2381,11111222 
TABS,ioos:station:wmo:42050:1,2012-06-03T12:00:00Z,28.8425,-94.2433,2.0,32.0972,11111222 
TABS,ioos:station:wmo:42050:1,2012-06-03T12:30:00Z,28.8425,-94.2433,2.0,32.0586,11111222 
TABS,ioos:station:wmo:42050:1,2012-06-03T13:00:00Z,28.8425,-94.2433,2.0,32.0187,11111222 
TABS,ioos:station:wmo:42050:1,2012-06-03T13:30:00Z,28.8425,-94.2433,2.0,31.9989,11111222 
TABS,ioos:station:wmo:42050:1,2012-06-03T14:00:00Z,28.8425,-94.2433,2.0,32.004,11111222 
TABS,ioos:station:wmo:42050:1,2012-06-03T14:30:00Z,28.8425,-94.2433,2.0,32.0057,11111222 
TABS,ioos:station:wmo:42050:1,2012-06-03T15:00:00Z,28.8425,-94.2433,2.0,32.0076,11111222 
TABS,ioos:station:wmo:42050:1,2012-06-03T15:30:00Z,28.8425,-94.2433,2.0,32.0035,11111222 
TABS,ioos:station:wmo:42050:1,2012-06-03T16:00:00Z,28.8425,-94.2433,2.0,32.0196,11111222 
TABS,ioos:station:wmo:42050:1,2012-06-03T16:30:00Z,28.8425,-94.2433,2.0,32.0356,11111222 
TABS,ioos:station:wmo:42050:1,2012-06-03T17:00:00Z,28.8425,-94.2433,2.0,32.0701,11111222 
TABS,ioos:station:wmo:42050:1,2012-06-03T17:30:00Z,28.8425,-94.2433,2.0,32.0982,11111222 
TABS,ioos:station:wmo:42050:1,2012-06-03T18:00:00Z,28.8425,-94.2433,2.0,32.1114,11111222 
TABS,ioos:station:wmo:42050:1,2012-06-03T18:30:00Z,28.8425,-94.2433,2.0,32.1358,11111222 
TABS,ioos:station:wmo:42050:1,2012-06-03T19:00:00Z,28.8425,-94.2433,2.0,32.1126,11111222 
TABS,ioos:station:wmo:42050:1,2012-06-03T19:30:00Z,28.8425,-94.2433,2.0,32.1428,11111222 
TABS,ioos:station:wmo:42050:1,2012-06-03T20:00:00Z,28.8425,-94.2433,2.0,32.117,11111222 
TABS,ioos:station:wmo:42050:1,2012-06-03T20:30:00Z,28.8425,-94.2433,2.0,32.1273,11111222 
TABS,ioos:station:wmo:42050:1,2012-06-03T21:00:00Z,28.8425,-94.2433,2.0,32.1252,11111222 
TABS,ioos:station:wmo:42050:1,2012-06-03T21:30:00Z,28.8425,-94.2433,2.0,32.1294,11111222 
TABS,ioos:station:wmo:42050:1,2012-06-03T22:00:00Z,28.8425,-94.2433,2.0,32.1192,11111222 
TABS,ioos:station:wmo:42050:1,2012-06-03T22:30:00Z,28.8425,-94.2433,2.0,32.113,11111222 
TABS,ioos:station:wmo:42050:1,2012-06-03T23:00:00Z,28.8425,-94.2433,2.0,32.1029,11111222 
TABS,ioos:station:wmo:42050:1,2012-06-03T23:30:00Z,28.8425,-94.2433,2.0,32.1105,11111222 
TABS,ioos:station:wmo:42050:1,2012-06-04T00:00:00Z,28.8425,-94.2433,2.0,32.1032,11111222 
TABS,ioos:station:wmo:42050:1,2012-06-04T00:30:00Z,28.8425,-94.2433,2.0,32.103,11111222 
TABS,ioos:station:wmo:42050:1,2012-06-04T01:00:00Z,28.8425,-94.2433,2.0,32.0933,11111222 
TABS,ioos:station:wmo:42050:1,2012-06-04T01:30:00Z,28.8425,-94.2433,2.0,32.0931,11111222 
TABS,ioos:station:wmo:42050:1,2012-06-04T02:00:00Z,28.8425,-94.2433,2.0,32.0933,11111222 
TABS,ioos:station:wmo:42050:1,2012-06-04T02:30:00Z,28.8425,-94.2433,2.0,32.0938,11111222 
TABS,ioos:station:wmo:42050:1,2012-06-04T03:00:00Z,28.8425,-94.2433,2.0,32.0921,11111222 
TABS,ioos:station:wmo:42050:1,2012-06-04T03:30:00Z,28.8425,-94.2433,2.0,32.1017,11111222 
TABS,ioos:station:wmo:42050:1,2012-06-04T04:00:00Z,28.8425,-94.2433,2.0,32.1086,11111222 
TABS,ioos:station:wmo:42050:1,2012-06-04T04:30:00Z,28.8425,-94.2433,2.0,32.1239,11111222 
TABS,ioos:station:wmo:42050:1,2012-06-04T05:00:00Z,28.8425,-94.2433,2.0,32.1283,11111222 
TABS,ioos:station:wmo:42050:1,2012-06-04T05:30:00Z,28.8425,-94.2433,2.0,32.1581,11111222 
TABS,ioos:station:wmo:42050:1,2012-06-04T06:00:00Z,28.8425,-94.2433,2.0,32.2209,11111222 
TABS,ioos:station:wmo:42050:1,2012-06-04T06:30:00Z,28.8425,-94.2433,2.0,32.2503,11111222 
TABS,ioos:station:wmo:42050:1,2012-06-04T07:00:00Z,28.8425,-94.2433,2.0,32.2439,11111222 
TABS,ioos:station:wmo:42050:1,2012-06-04T07:30:00Z,28.8425,-94.2433,2.0,32.2492,11111222 
TABS,ioos:station:wmo:42050:1,2012-06-04T08:00:00Z,28.8425,-94.2433,2.0,32.2596,11111222 
TABS,ioos:station:wmo:42050:1,2012-06-04T08:30:00Z,28.8425,-94.2433,2.0,32.2462,11111222 
TABS,ioos:station:wmo:42050:1,2012-06-04T09:00:00Z,28.8425,-94.2433,2.0,32.239,11111222 
TABS,ioos:station:wmo:42050:1,2012-06-04T09:30:00Z,28.8425,-94.2433,2.0,32.241,11111222 
TABS,ioos:station:wmo:42050:1,2012-06-04T10:00:00Z,28.8425,-94.2433,2.0,32.2318,11111222 
TABS,ioos:station:wmo:42050:1,2012-06-04T10:30:00Z,28.8425,-94.2433,2.0,32.2429,11111222 
TABS,ioos:station:wmo:42050:1,2012-06-04T11:00:00Z,28.8425,-94.2433,2.0,32.268,11111222 
TABS,ioos:station:wmo:42050:1,2012-06-04T11:30:00Z,28.8425,-94.2433,2.0,32.2793,11111222 
TABS,ioos:station:wmo:42050:1,2012-06-04T12:00:00Z,28.8425,-94.2433,2.0,32.2826,11111222 
TABS,ioos:station:wmo:42050:1,2012-06-04T12:30:00Z,28.8425,-94.2433,2.0,32.2697,11111222 
TABS,ioos:station:wmo:42050:1,2012-06-04T13:00:00Z,28.8425,-94.2433,2.0,32.2511,11111222 
TABS,ioos:station:wmo:42050:1,2012-06-04T13:30:00Z,28.8425,-94.2433,2.0,32.2441,11111222 
TABS,ioos:station:wmo:42050:1,2012-06-04T14:00:00Z,28.8425,-94.2433,2.0,32.2543,11111222 
TABS,ioos:station:wmo:42050:1,2012-06-04T14:30:00Z,28.8425,-94.2433,2.0,32.2544,11111222 
TABS,ioos:station:wmo:42050:1,2012-06-04T15:00:00Z,28.8425,-94.2433,2.0,32.2465,11111222 
TABS,ioos:station:wmo:42050:1,2012-06-04T15:30:00Z,28.8425,-94.2433,2.0,32.2411,11111222 
TABS,ioos:station:wmo:42050:1,2012-06-04T16:00:00Z,28.8425,-94.2433,2.0,32.2603,11111222 
TABS,ioos:station:wmo:42050:1,2012-06-04T16:30:00Z,28.8425,-94.2433,2.0,32.2398,11111222 
TABS,ioos:station:wmo:42050:1,2012-06-04T17:00:00Z,28.8425,-94.2433,2.0,32.1571,11111222 
TABS,ioos:station:wmo:42050:1,2012-06-04T17:30:00Z,28.8425,-94.2433,2.0,32.1376,11111222 
TABS,ioos:station:wmo:42050:1,2012-06-04T18:00:00Z,28.8425,-94.2433,2.0,32.1503,11111222 
TABS,ioos:station:wmo:42050:1,2012-06-04T18:30:00Z,28.8425,-94.2433,2.0,32.1684,11111222 
TABS,ioos:station:wmo:42050:1,2012-06-04T19:00:00Z,28.8425,-94.2433,2.0,32.1302,11111222 
TABS,ioos:station:wmo:42050:1,2012-06-04T19:30:00Z,28.8425,-94.2433,2.0,32.124,11111222 
TABS,ioos:station:wmo:42050:1,2012-06-04T20:00:00Z,28.8425,-94.2433,2.0,32.0961,11111222 
TABS,ioos:station:wmo:42050:1,2012-06-04T20:30:00Z,28.8425,-94.2433,2.0,32.076,11111222 
TABS,ioos:station:wmo:42050:1,2012-06-04T21:00:00Z,28.8425,-94.2433,2.0,32.0558,11111222 
TABS,ioos:station:wmo:42050:1,2012-06-04T21:30:00Z,28.8425,-94.2433,2.0,32.0419,11111222 
TABS,ioos:station:wmo:42050:1,2012-06-04T22:00:00Z,28.8425,-94.2433,2.0,32.0434,11111222 
TABS,ioos:station:wmo:42050:1,2012-06-04T22:30:00Z,28.8425,-94.2433,2.0,32.0229,11111222 
TABS,ioos:station:wmo:42050:1,2012-06-04T23:00:00Z,28.8425,-94.2433,2.0,32.0182,11111222 
TABS,ioos:station:wmo:42050:1,2012-06-04T23:30:00Z,28.8425,-94.2433,2.0,32.0221,11111222 
TABS,ioos:station:wmo:42050:1,2012-06-05T00:00:00Z,28.8425,-94.2433,2.0,32.0302,11111222 
TABS,ioos:station:wmo:42050:1,2012-06-05T00:30:00Z,28.8425,-94.2433,2.0,32.0399,11111222 
TABS,ioos:station:wmo:42050:1,2012-06-05T01:00:00Z,28.8425,-94.2433,2.0,32.0496,11111222 
TABS,ioos:station:wmo:42050:1,2012-06-05T01:30:00Z,28.8425,-94.2433,2.0,32.0494,11111222 
TABS,ioos:station:wmo:42050:1,2012-06-05T02:00:00Z,28.8425,-94.2433,2.0,32.0704,11111222 
TABS,ioos:station:wmo:42050:1,2012-06-05T02:30:00Z,28.8425,-94.2433,2.0,32.0783,11111222 
TABS,ioos:station:wmo:42050:1,2012-06-05T03:00:00Z,28.8425,-94.2433,2.0,32.0824,11111222 
TABS,ioos:station:wmo:42050:1,2012-06-05T03:30:00Z,28.8425,-94.2433,2.0,32.1014,11111222 
TABS,ioos:station:wmo:42050:1,2012-06-05T04:00:00Z,28.8425,-94.2433,2.0,32.1105,11111222 
TABS,ioos:station:wmo:42050:1,2012-06-05T04:30:00Z,28.8425,-94.2433,2.0,32.1142,11111222 
TABS,ioos:station:wmo:42050:1,2012-06-05T05:00:00Z,28.8425,-94.2433,2.0,32.1134,11111222 
TABS,ioos:station:wmo:42050:1,2012-06-05T05:30:00Z,28.8425,-94.2433,2.0,32.1165,11111222 
TABS,ioos:station:wmo:42050:1,2012-06-05T06:00:00Z,28.8425,-94.2433,2.0,32.0904,11111222 
TABS,ioos:station:wmo:42050:1,2012-06-05T06:30:00Z,28.8425,-94.2433,2.0,32.1105,11111222 
TABS,ioos:station:wmo:42050:1,2012-06-05T07:00:00Z,28.8425,-94.2433,2.0,32.0879,11111222 
TABS,ioos:station:wmo:42050:1,2012-06-05T07:30:00Z,28.8425,-94.2433,2.0,32.0794,11111222 
TABS,ioos:station:wmo:42050:1,2012-06-05T08:00:00Z,28.8425,-94.2433,2.0,32.0593,11111222 
TABS,ioos:station:wmo:42050:1,2012-06-05T08:30:00Z,28.8425,-94.2433,2.0,32.0375,11111222 
TABS,ioos:station:wmo:42050:1,2012-06-05T09:00:00Z,28.8425,-94.2433,2.0,32.0323,11111222 
TABS,ioos:station:wmo:42050:1,2012-06-05T09:30:00Z,28.8425,-94.2433,2.0,32.0298,11111222 
TABS,ioos:station:wmo:42050:1,2012-06-05T10:00:00Z,28.8425,-94.2433,2.0,32.0226,11111222 
TABS,ioos:station:wmo:42050:1,2012-06-05T10:30:00Z,28.8425,-94.2433,2.0,32.0105,11111222 
TABS,ioos:station:wmo:42050:1,2012-06-05T11:00:00Z,28.8425,-94.2433,2.0,31.9905,11111222 
TABS,ioos:station:wmo:42050:1,2012-06-05T11:30:00Z,28.8425,-94.2433,2.0,31.9697,11111222 
TABS,ioos:station:wmo:42050:1,2012-06-05T12:00:00Z,28.8425,-94.2433,2.0,31.9842,11111222 
TABS,ioos:station:wmo:42050:1,2012-06-05T12:30:00Z,28.8425,-94.2433,2.0,31.9774,11111222 
TABS,ioos:station:wmo:42050:1,2012-06-05T13:00:00Z,28.8425,-94.2433,2.0,31.9761,11111222 
TABS,ioos:station:wmo:42050:1,2012-06-05T13:30:00Z,28.8425,-94.2433,2.0,31.9726,11111222 
TABS,ioos:station:wmo:42050:1,2012-06-05T14:00:00Z,28.8425,-94.2433,2.0,31.967,11111222 
TABS,ioos:station:wmo:42050:1,2012-06-05T14:30:00Z,28.8425,-94.2433,2.0,31.9684,11111222 
TABS,ioos:station:wmo:42050:1,2012-06-05T15:00:00Z,28.8425,-94.2433,2.0,31.9638,11111222 
TABS,ioos:station:wmo:42050:1,2012-06-05T15:30:00Z,28.8425,-94.2433,2.0,31.9669,11111222 
TABS,ioos:station:wmo:42050:1,2012-06-05T16:00:00Z,28.8425,-94.2433,2.0,31.9619,11111222 
TABS,ioos:station:wmo:42050:1,2012-06-05T16:30:00Z,28.8425,-94.2433,2.0,31.9643,11111222 
TABS,ioos:station:wmo:42050:1,2012-06-05T17:00:00Z,28.8425,-94.2433,2.0,31.9768,11111222 
TABS,ioos:station:wmo:42050:1,2012-06-05T17:30:00Z,28.8425,-94.2433,2.0,31.9821,11111222 
TABS,ioos:station:wmo:42050:1,2012-06-05T18:00:00Z,28.8425,-94.2433,2.0,31.9862,11111222 
TABS,ioos:station:wmo:42050:1,2012-06-05T18:30:00Z,28.8425,-94.2433,2.0,31.9815,11111222 
TABS,ioos:station:wmo:42050:1,2012-06-05T19:00:00Z,28.8425,-94.2433,2.0,31.9573,11111222 
TABS,ioos:station:wmo:42050:1,2012-06-05T19:30:00Z,28.8425,-94.2433,2.0,31.9458,11111222 
TABS,ioos:station:wmo:42050:1,2012-06-05T20:00:00Z,28.8425,-94.2433,2.0,31.9713,11111222 
TABS,ioos:station:wmo:42050:1,2012-06-05T20:30:00Z,28.8425,-94.2433,2.0,32.0209,11111222 
TABS,ioos:station:wmo:42050:1,2012-06-05T21:00:00Z,28.8425,-94.2433,2.0,31.9905,11111222 
TABS,ioos:station:wmo:42050:1,2012-06-05T21:30:00Z,28.8425,-94.2433,2.0,31.986,11111222 
TABS,ioos:station:wmo:42050:1,2012-06-05T22:00:00Z,28.8425,-94.2433,2.0,31.9595,11111222 
TABS,ioos:station:wmo:42050:1,2012-06-05T22:30:00Z,28.8425,-94.2433,2.0,31.9613,11111222 
TABS,ioos:station:wmo:42050:1,2012-06-05T23:00:00Z,28.8425,-94.2433,2.0,31.968,11111222 
TABS,ioos:station:wmo:42050:1,2012-06-05T23:30:00Z,28.8425,-94.2433,2.0,31.9839,11111222 
TABS,ioos:station:wmo:42050:1,2012-06-06T00:00:00Z,28.8425,-94.2433,2.0,31.9637,11111222 
TABS,ioos:station:wmo:42050:1,2012-06-06T00:30:00Z,28.8425,-94.2433,2.0,31.9576,11111222 
TABS,ioos:station:wmo:42050:1,2012-06-06T01:00:00Z,28.8425,-94.2433,2.0,31.9519,11111222 
TABS,ioos:station:wmo:42050:1,2012-06-06T01:30:00Z,28.8425,-94.2433,2.0,31.9473,11111222 
TABS,ioos:station:wmo:42050:1,2012-06-06T02:00:00Z,28.8425,-94.2433,2.0,31.947,11111222 
TABS,ioos:station:wmo:42050:1,2012-06-06T02:30:00Z,28.8425,-94.2433,2.0,31.949,11111222 
TABS,ioos:station:wmo:42050:1,2012-06-06T03:00:00Z,28.8425,-94.2433,2.0,31.9495,11111222 
TABS,ioos:station:wmo:42050:1,2012-06-06T03:30:00Z,28.8425,-94.2433,2.0,31.951,11111222 
TABS,ioos:station:wmo:42050:1,2012-06-06T04:00:00Z,28.8425,-94.2433,2.0,31.9539,11111222 
TABS,ioos:station:wmo:42050:1,2012-06-06T04:30:00Z,28.8425,-94.2433,2.0,31.9585,11111222 
TABS,ioos:station:wmo:42050:1,2012-06-06T05:00:00Z,28.8425,-94.2433,2.0,31.9594,11111222 
TABS,ioos:station:wmo:42050:1,2012-06-06T05:30:00Z,28.8425,-94.2433,2.0,31.9613,11111222 
TABS,ioos:station:wmo:42050:1,2012-06-06T06:00:00Z,28.8425,-94.2433,2.0,31.9612,11111222 
TABS,ioos:station:wmo:42050:1,2012-06-06T06:30:00Z,28.8425,-94.2433,2.0,31.9696,11111222 
TABS,ioos:station:wmo:42050:1,2012-06-06T07:00:00Z,28.8425,-94.2433,2.0,31.9756,11111222 
TABS,ioos:station:wmo:42050:1,2012-06-06T07:30:00Z,28.8425,-94.2433,2.0,31.9947,11111222 
TABS,ioos:station:wmo:42050:1,2012-06-06T08:00:00Z,28.8425,-94.2433,2.0,32.0834,11111222 
TABS,ioos:station:wmo:42050:1,2012-06-06T08:30:00Z,28.8425,-94.2433,2.0,32.2043,11111222 
TABS,ioos:station:wmo:42050:1,2012-06-06T09:00:00Z,28.8425,-94.2433,2.0,32.2429,11111222 
TABS,ioos:station:wmo:42050:1,2012-06-06T09:30:00Z,28.8425,-94.2433,2.0,32.2458,11111222 
TABS,ioos:station:wmo:42050:1,2012-06-06T10:00:00Z,28.8425,-94.2433,2.0,32.2347,11111222 
TABS,ioos:station:wmo:42050:1,2012-06-06T10:30:00Z,28.8425,-94.2433,2.0,32.2174,11111222 
TABS,ioos:station:wmo:42050:1,2012-06-06T11:00:00Z,28.8425,-94.2433,2.0,32.2027,11111222 
TABS,ioos:station:wmo:42050:1,2012-06-06T11:30:00Z,28.8425,-94.2433,2.0,32.1923,11111222 
TABS,ioos:station:wmo:42050:1,2012-06-06T12:00:00Z,28.8425,-94.2433,2.0,32.1849,11111222 